GW5386 Weather Reports


time (UTC)temp
C
wind
direction
speed
KPH
gust
KPH
rain 1hr
cm
rain 24hr
cm
rain mn
cm
humidity
%
barometer
mb
20260503033051 12 327 1.6 3.2 0.00 0.00 0.00 42 1015.7
20260503031539 12 338 1.6 3.2 0.00 0.00 0.00 43 1015.6
20260503030039 12 335 1.6 3.2 0.00 0.00 0.00 41 1015.4
20260503024545 15 31 0.0 3.2 0.00 0.00 0.00 35 1015.2
20260503023044 15 68 0.0 0.0 0.00 0.00 0.00 35 1015.2
20260503021536 15 68 0.0 3.2 0.00 0.00 0.00 36 1015.1
20260503020036 15 349 3.2 6.4 0.00 0.00 0.00 35 1015.1
20260503014535 15 357 4.8 6.4 0.00 0.00 0.00 33 1015.1
20260503013036 17 354 0.0 8.0 0.00 0.00 0.00 32 1015.2
20260503011534 17 342 4.8 22.5 0.00 0.00 0.00 30 1015.2
20260503010034 17 39 3.2 8.0 0.00 0.00 0.00 32 1015.2
20260503004537 17 106 0.0 1.6 0.00 0.00 0.00 31 1015.5
20260503003038 17 136 0.0 3.2 0.00 0.00 0.00 31 1015.6
20260503001532 17 311 3.2 8.0 0.00 0.00 0.00 31 1015.7
20260503000032 17 333 3.2 8.0 0.00 0.00 0.00 30 1015.8
20260502234535 17 4 4.8 11.3 0.00 0.00 0.00 31 1016.0
20260502233030 18 51 4.8 14.5 0.00 0.00 0.00 29 1016.0
20260502231530 18 26 3.2 12.9 0.00 0.00 0.00 29 1016.1
20260502230130 18 58 4.8 12.9 0.00 0.00 0.00 29 1016.3
20260502224526 19 129 3.2 9.7 0.00 0.00 0.00 29 1016.5
20260502223124 17 79 4.8 16.1 0.00 0.00 0.00 31 1016.7
20260502221522 18 240 0.0 14.5 0.00 0.00 0.00 30 1016.9
20260502220024 18 190 4.8 14.5 0.00 0.00 0.00 31 1017.0
20260502214521 18 294 3.2 12.9 0.00 0.00 0.00 31 1017.3
20260502213034 17 233 1.6 6.4 0.00 0.00 0.00 32 1017.5
20260502211521 17 35 1.6 9.7 0.00 0.00 0.00 33 1017.6
20260502210017 17 68 4.8 11.3 0.00 0.00 0.00 33 1017.8
20260502204517 16 74 3.2 9.7 0.00 0.00 0.00 33 1017.8
20260502203016 16 98 4.8 19.3 0.00 0.00 0.00 34 1018.0
20260502201527 17 323 6.4 16.1 0.00 0.00 0.00 33 1018.0
20260502200014 17 52 8.0 17.7 0.00 0.00 0.00 35 1018.3
20260502194511 15 67 11.3 19.3 0.00 0.00 0.00 39 1018.5
20260502193011 15 60 12.9 24.1 0.00 0.00 0.00 38 1018.7
20260502191509 15 70 9.7 20.9 0.00 0.00 0.00 39 1018.9
20260502190009 15 56 6.4 17.7 0.00 0.00 0.00 39 1018.9
20260502184510 15 53 12.9 20.9 0.00 0.00 0.00 39 1019.0
20260502183009 15 55 11.3 16.1 0.00 0.00 0.00 38 1019.0
20260502181508 15 51 6.4 16.1 0.00 0.00 0.00 38 1019.0
20260502163004 15 66 4.8 22.5 0.00 0.00 0.00 36 1019.0
20260502161503 15 57 17.7 25.7 0.00 0.00 0.00 36 1019.0
20260502151612 15 98 9.7 22.5 0.00 0.00 0.00 37 1019.0
20260502123031 7 10 8.0 12.9 0.00 0.00 0.00 51 1018.1
20260502121532 7 359 11.3 17.7 0.00 0.00 0.00 51 1018.1
20260502114522 8 296 3.2 16.1 0.00 0.00 0.00 50 1017.8
20260502113026 8 354 9.7 17.7 0.00 0.00 0.00 48 1017.7
20260502111521 8 340 14.5 22.5 0.00 0.00 0.00 47 1017.5
20260502110016 9 323 12.9 19.3 0.00 0.00 0.00 46 1017.2
20260502104516 9 346 12.9 19.3 0.00 0.00 0.00 45 1017.0
20260502103014 10 334 12.9 19.3 0.00 0.00 0.00 43 1016.7
20260502101507 9 328 11.3 16.1 0.00 0.00 0.00 44 1016.4
20260502091501 10 8 4.8 11.3 0.00 0.00 0.00 38 1015.8
20260502090122 10 43 9.7 20.9 0.00 0.00 0.00 38 1015.7
20260502070100 10 321 4.8 8.0 0.00 0.00 0.00 35 1015.1
20260502064546 10 340 6.4 9.7 0.00 0.00 0.00 34 1015.0
20260502063040 10 341 4.8 9.7 0.00 0.00 0.00 35 1015.1
20260502061539 10 336 6.4 11.3 0.00 0.00 0.00 35 1015.0
20260502060043 10 328 8.0 12.9 0.00 0.00 0.00 35 1015.0
20260502054552 11 314 11.3 17.7 0.00 0.00 0.00 32 1014.9
20260502053037 11 316 12.9 16.1 0.00 0.00 0.00 31 1014.9
20260502051538 12 294 12.9 17.7 0.00 0.00 0.00 28 1015.0
20260502050036 12 298 12.9 17.7 0.00 0.00 0.00 28 1014.9
20260502044536 12 297 11.3 17.7 0.00 0.00 0.00 28 1014.9
20260502043044 11 303 11.3 14.5 0.00 0.00 0.00 28 1014.8
20260502041553 12 304 12.9 17.7 0.00 0.00 0.00 26 1014.8
20260502040048 12 302 11.3 17.7 0.00 0.00 0.00 24 1014.8
20260502034533 13 292 12.9 19.3 0.00 0.00 0.00 23 1014.6